Tracking 28766 objects as of 14-Apr-2024
HD Live streaming from Space Station
objects crossing your sky now

STARLINK-2116

Track STARLINK-2116 now!
10-day predictions
STARLINK-2116 is classified as:


NORAD ID: 47724
Int'l Code: 2021-017C
Perigee: 553.5 km
Apogee: 555.2 km
Inclination: 53.1 °
Period: 95.6 minutes
Semi major axis: 6925 km
RCS: Unknown
Launch date: March 4, 2021
Source: United States (US)
Launch site: AIR FORCE EASTERN TEST RANGE (AFETR)
Your satellite tracking list
Your tracking list is empty




NASA's NSSDC Master Catalog

Two Line Element Set (TLE):
1 47724U 21017C   24104.13089434  .00002115  00000-0  16085-3 0  9990
2 47724  53.0555  14.0994 0001244 105.9599 254.1527 15.06396832173993
Source of the keplerian elements: AFSPC